Southend-On-Sea, United Kingdom

9:47 PM GMT on November 20, 2018 (GMT +0000)
Southend

Weather History for EGMC - September, 2018

Change the Weather History Date:

Friday, September 14, 2018

  Actual Average Record
Temperature  
Mean Temperature 56 °F -  
Max Temperature 64 °F 62 °F 80 °F (2016)
Min Temperature 48 °F 49 °F 44 °F (1996)
Degree Days  
Heating Degree Days 9    
Growing Degree Days 6 (Base 50)    
Moisture  
Dew Point 47 °F    
Average Humidity 67    
Maximum Humidity 82    
Minimum Humidity 49    
Precipitation  
Precipitation 0.00 in - - ()
Sea Level Pressure  
Sea Level Pressure 30.12 in    
Wind  
Wind Speed 8 mph ()    
Max Wind Speed 18 mph    
Max Gust Speed -    
Visibility 6.2 miles    
Events      
Averages and records for this station are not official NWS values.
T = Trace of Precipitation, MM = Missing Value Source: Averaged Metar Reports

Daily Weather History Graph

Daily Weather History Graph

Search for Another Location

Airport or City:

Astronomy

Sep. 14, 2018 Rise Set
Actual Time 6:30 AM BST 7:14 PM BST
Civil Twilight 5:56 AM BST 7:48 PM BST
Nautical Twilight 5:15 AM BST 8:28 PM BST
Astronomical Twilight 4:32 AM BST 9:11 PM BST
Moon 12:02 PM BST (9/14) 9:49 PM BST (9/14)
Length of Visible Light 13h 51m
Length of Day
12h 44m
Waxing Crescent, 26% of the Moon is Illuminated
Sep 14
Waxing Crescent
Sep 17
First Quarter
Sep 25
Full
Oct 2
Last Quarter
Oct 9
New

Hourly Weather History & Observations

Time (BST) Temp. Dew Point Humidity Pressure Visibility Wind Dir Wind Speed Gust Speed Precip Events Conditions
12:20 AM 51.8 °F 44.6 °F 76% 30.15 in - WSW 3.5 mph - N/A   Clear
12:50 AM 53.6 °F 44.6 °F 72% 30.15 in - SW 3.5 mph - N/A   Clear
1:20 AM 53.6 °F 44.6 °F 72% 30.15 in - SW 3.5 mph - N/A   Clear
1:50 AM 53.6 °F 46.4 °F 77% 30.15 in - SW 6.9 mph - N/A   Clear
2:50 AM 53.6 °F 46.4 °F 77% 30.15 in - West 4.6 mph - N/A   Clear
3:50 AM 55.4 °F 44.6 °F 67% 30.15 in - WSW 8.1 mph - N/A   Clear
4:20 AM 50.0 °F 42.8 °F 76% 30.12 in - WSW 4.6 mph - N/A   Clear
5:20 AM 50.0 °F 44.6 °F 82% 30.12 in - WSW 4.6 mph - N/A   Clear
5:50 AM 48.2 °F 42.8 °F 82% 30.12 in - WSW 5.8 mph - N/A   Clear
6:20 AM 48.2 °F 42.8 °F 82% 30.12 in - WSW 6.9 mph - N/A   Clear
6:50 AM 48.2 °F 42.8 °F 82% 30.12 in - WSW 6.9 mph - N/A   Clear
7:20 AM 51.8 °F 46.4 °F 82% 30.12 in - SW 6.9 mph - N/A   Clear
7:50 AM 51.8 °F 46.4 °F 82% 30.12 in - WSW 6.9 mph - N/A   Clear
8:20 AM 53.6 °F 46.4 °F 77% 30.12 in - WSW 8.1 mph - N/A   Clear
8:50 AM 55.4 °F 46.4 °F 72% 30.12 in - WSW 10.4 mph - N/A   Clear
9:20 AM 55.4 °F 46.4 °F 72% 30.12 in - SW 11.5 mph - N/A   Clear
9:50 AM 59.0 °F 48.2 °F 67% 30.12 in 6.2 mi SW 12.7 mph - N/A   Partly Cloudy
10:20 AM 59.0 °F 48.2 °F 67% 30.12 in - WSW 15.0 mph - N/A   Clear
10:50 AM 59.0 °F 48.2 °F 67% 30.12 in - SW 13.8 mph - N/A   Clear
11:20 AM 60.8 °F 48.2 °F 63% 30.12 in 6.2 mi SW 16.1 mph - N/A   Partly Cloudy
11:50 AM 60.8 °F 46.4 °F 59% 30.12 in 6.2 mi WSW 16.1 mph - N/A   Partly Cloudy
12:20 PM 64.4 °F 46.4 °F 52% 30.12 in 6.2 mi SW 18.4 mph - N/A   Partly Cloudy
12:50 PM 64.4 °F 46.4 °F 52% 30.12 in 6.2 mi WSW 16.1 mph - N/A   Scattered Clouds
1:20 PM 64.4 °F 46.4 °F 52% 30.09 in 6.2 mi WSW 13.8 mph - N/A   Scattered Clouds
1:50 PM 64.4 °F 46.4 °F 52% 30.09 in 6.2 mi WSW 15.0 mph - N/A   Scattered Clouds
2:20 PM 64.4 °F 46.4 °F 52% 30.09 in 6.2 mi WSW 13.8 mph - N/A   Scattered Clouds
2:50 PM 64.4 °F 44.6 °F 49% 30.09 in 6.2 mi WSW 16.1 mph - N/A   Scattered Clouds
3:20 PM 64.4 °F 46.4 °F 52% 30.09 in 6.2 mi WSW 16.1 mph - N/A   Partly Cloudy
3:50 PM 64.4 °F 46.4 °F 52% 30.09 in 6.2 mi WSW 16.1 mph - N/A   Partly Cloudy
4:20 PM 64.4 °F 46.4 °F 52% 30.09 in 6.2 mi WSW 15.0 mph - N/A   Partly Cloudy
4:50 PM 64.4 °F 48.2 °F 56% 30.09 in 6.2 mi WSW 17.3 mph - N/A   Partly Cloudy
5:20 PM 62.6 °F 48.2 °F 59% 30.09 in 6.2 mi WSW 15.0 mph - N/A   Partly Cloudy
5:50 PM 62.6 °F 48.2 °F 59% 30.09 in 6.2 mi WSW 15.0 mph - N/A   Partly Cloudy
6:20 PM 62.6 °F 48.2 °F 59% 30.09 in 6.2 mi WSW 15.0 mph - N/A   Partly Cloudy
6:50 PM 62.6 °F 48.2 °F 59% 30.09 in - WSW 11.5 mph - N/A   Clear
7:20 PM 59.0 °F 48.2 °F 67% 30.09 in - WSW 9.2 mph - N/A   Clear
7:50 PM 59.0 °F 48.2 °F 67% 30.12 in - WSW 8.1 mph - N/A   Clear
8:20 PM 59.0 °F 48.2 °F 67% 30.12 in - WSW 9.2 mph - N/A   Clear
8:50 PM 55.4 °F 46.4 °F 72% 30.12 in - SW 9.2 mph - N/A   Clear
9:20 PM 55.4 °F 46.4 °F 72% 30.12 in - SW 11.5 mph - N/A   Clear
9:50 PM 57.2 °F 50.0 °F 77% 30.12 in - SW 9.2 mph - N/A   Clear
10:20 PM 55.4 °F 48.2 °F 77% 30.12 in - SW 8.1 mph - N/A   Clear
10:50 PM 55.4 °F 48.2 °F 77% 30.15 in - SW 9.2 mph - N/A   Clear
11:50 PM 55.4 °F 48.2 °F 77% 30.15 in - SW 9.2 mph - N/A   Clear